Regional Weather Roundup
Issued by NWS

Home | Current Version | Previous Version | Text Only | Print | Product List | Glossary On
Versions: 1 2 3 4 5 6 7 8 9 10 11 12 13 14 15 16 17 18 19 20 21 22 23 24 25 26 27 28 29 30 31 32 33 34 35 36 37 38 39 40 41 42 43 44 45 46 47 48 49 50
000
ASUS43 KIND 111259
RWRIN

WEATHER ROUNDUP FOR INDIANA
NATIONAL WEATHER SERVICE INDIANAPOLIS IN
800 AM EST SUN DEC 11 2016

NOTE: "FAIR" INDICATES FEW OR NO CLOUDS BELOW 12,000 FEET WITH NO
SIGNIFICANT WEATHER AND/OR OBSTRUCTIONS TO VISIBILITY.

* - STATION DOES NOT REPORT WEATHER SUCH AS PRECIPITATION OR FOG.

+ - STATION NOT QUALITY CONTROLLED BY THE NATIONAL WEATHER SERVICE.
    USE DATA WITH CAUTION...ESPECIALLY DEWPOINT AND RELATIVE
    HUMIDITY OBSERVATIONS.

INZ001>003-010>013-019-020-111400-
NORTHWEST INDIANA

CITY           SKY/WX    TMP DP  RH WIND       PRES   REMARKS
GARY /AIRPORT/ LGT SNOW  28  25  86 SE14      30.08F VSB 1   WCI  17
KNOX *+        CLOUDY    27  12  54 SE9       30.13S WCI  17
LA PORTE +     LGT SNOW  25  23  91 SE9       30.12F WCI  16
RENSSELAER +   LGT SNOW  28  28 100 SE13      30.10F WCI  18
VALPARAISO     LGT SNOW  27  23  85 MISG      30.10F FOG

$$

LMZ046-743>745-111400-
SOUTHERN LAKE MICHIGAN

STATION/POSITION TIME  TEMP    WIND        PRES    WAVE
                       AIR SEA DIR/SP/G            HT
                 (UTC) (F)     (DEG/KT/KT) (MB)    (FT)
BURNS HARBOR     1240   26     140/ 13/ 20 1019.6F

$$

INZ004-005-014>016-021>024-111400-
NORTH CENTRAL INDIANA

CITY           SKY/WX    TMP DP  RH WIND       PRES   REMARKS
GOSHEN         LGT SNOW  25  20  81 SE16      30.15F WCI  12
SOUTH BEND     LGT SNOW  24  22  91 SE12      30.13F FOG     WCI  13
WARSAW +       LGT SNOW  27  21  80 SE8       30.15F WCI  18

$$

INZ006>009-017-018-025>027-111400-
NORTHEAST INDIANA

CITY           SKY/WX    TMP DP  RH WIND       PRES   REMARKS
ANGOLA *+      CLOUDY    23  21  93 SE10      30.18F WCI  12
FORT WAYNE     LGT SNOW  25  22  88 SE12      30.20F FOG     WCI  14
KENDALLVILLE + LGT SNOW  24  22  92 SE10      30.18F WCI  13

$$

INZ028-029-035-036-043>045-051>053-111400-
WEST CENTRAL INDIANA

CITY           SKY/WX    TMP DP  RH WIND       PRES   REMARKS
CRAWFORDSVL +  FLURRIES  27  26  98 SE13      30.11F WCI  16
GREENCASTLE +  CLOUDY    32  23  69 SE13      30.14F WCI  22
LAFAYETTE      LGT SNOW  29  24  82 S9        30.12F WCI  20
TERRE HAUTE    CLOUDY    34  18  52 S15       30.12F WCI  24

$$

INZ030>032-037>040-046>048-054>057-064-065-111400-
CENTRAL INDIANA

CITY           SKY/WX    TMP DP  RH WIND       PRES   REMARKS
COLUMBUS       CLOUDY    30  21  69 SE8       30.20F WCI  23
FRANKFORT +    CLOUDY    32  24  73 S9        30.14S HAZE    WCI  24
GREENWOOD *+   CLOUDY    31  20  64 SE13      30.17F WCI  21
INDIANAPOLIS   CLOUDY    30  19  63 SE14      30.15F WCI  19
-EAGLE CREEK   CLOUDY    31  18  58 SE8       30.15F WCI  23
KOKOMO +       FLURRIES  28  22  78 SE16      30.15F WCI  16
SHELBYVILLE    CLOUDY    31  19  61 SE14      30.18F WCI  21
ZIONSVILLE +   CLOUDY    28  20  70 S10       30.15F WCI  19

$$

INZ033-034-041-042-049-050-058-059-111400-
EAST CENTRAL INDIANA

CITY           SKY/WX    TMP DP  RH WIND       PRES   REMARKS
MUNCIE         CLOUDY    30  20  66 SE10G20   30.18F WCI  21

$$

INZ060-061-067>069-081>083-085>088-111400-
SOUTHWEST INDIANA

CITY           SKY/WX    TMP DP  RH WIND       PRES   REMARKS
EVANSVILLE     CLOUDY    37  20  50 S8        30.16F
HUNTINGBURG *+ CLOUDY    36  18  48 SE9       30.17F

$$

INZ062-063-066-070>080-084-089>092-111400-
SOUTH CENTRAL AND SOUTHEAST INDIANA

CITY           SKY/WX    TMP DP  RH WIND       PRES   REMARKS
BLOOMINGTON    CLOUDY    32  17  54 SE9       30.15F WCI  24
MADISON *+     CLOUDY    32  19  59 SE7       30.24F WCI  26
SEYMOUR +      CLOUDY    34  19  55 SE10      30.20F WCI  26

$$




USA.gov is the U.S. government's official web portal to all federal, state and local government web resources and services.